Regional Weather Roundup
Issued by NWS Cleveland, OH

Home | Current Version | Previous Version | Graphics & Text | Print | Product List | Glossary On
Versions: 1 2 3 4 5 6 7 8 9 10 11 12 13 14 15 16 17 18 19 20 21 22 23 24 25 26 27 28 29 30 31 32 33 34 35 36 37 38 39 40 41 42 43 44 45 46 47 48 49 50
760
ASUS41 KCLE 201310
RWRCLE
OHIO REGIONAL WEATHER ROUNDUP
NATIONAL WEATHER SERVICE CLEVELAND, OH
900 AM EDT THU JUL 20 2017

NOTE: "FAIR" INDICATES FEW OR NO CLOUDS BELOW 12,000 FEET WITH NO
SIGNIFICANT WEATHER AND/OR OBSTRUCTIONS TO VISIBILITY.

OHZ001>008-015>018-024>027-034-035-043-044-201400-
   NORTHWEST OHIO

CITY           SKY/WX    TMP DP  RH WIND       PRES   REMARKS
DEFIANCE       CLOUDY    76  67  73 SW9       30.05R
FINDLAY        CLOUDY    78  71  79 SW10      30.05S
TOLEDO EXPRESS MOSUNNY   77  70  79 W14       30.02R
TOLEDO EXEC    MOSUNNY   79  74  84 W13       30.03S
LIMA           PTSUNNY   76  73  91 W13       30.08S
$$

OHZ009>014-019>023-028>033-038-089-201400-
   NORTHEAST OHIO

CITY           SKY/WX    TMP DP  RH WIND       PRES   REMARKS
CLE-HOPKINS    PTSUNNY   80  71  74 SW9       30.04F
CLE-LAKEFRONT  MOSUNNY   82  70  66 SW10      30.01F
CUY CO. ARPT   PTSUNNY   82  68  61 SW9       30.04R
LORAIN-ELYRIA  MOSUNNY   78  68  71 SW7       30.04F
ASHTABULA      MOSUNNY   76  70  82 SW9       30.05R
AKRON-CANTON   CLOUDY    78  68  71 SW6       30.09R
WOOSTER        PTSUNNY   76  71  85 W7        30.09R
MANSFIELD      CLOUDY    79  72  79 SW9       30.08F
YOUNGSTOWN     PTSUNNY   78  69  73 SW8       30.07R
$$

OHZ042-051>053-060>062-070>072-077>081-201400-
  SOUTHWEST OHIO

CITY           SKY/WX    TMP DP  RH WIND       PRES   REMARKS
CINC-COVINGTON CLOUDY    77  73  87 SW5       30.13R
CINC-LUNKEN    PTSUNNY   75  72  90 CALM      30.12R
HAMILTON       CLOUDY    77  73  87 CALM      30.13R
DAYTON         CLOUDY    76  72  87 SW7       30.12S
WRIGHT-PAT AFB CLOUDY    77  75  93 SW5       30.12R
DAYTON GENERAL CLOUDY    77  71  82 SW5       30.12R
WILMINGTON     MOSUNNY   77  73  87 SW3       30.13R
$$

OHZ036-037-039>041-045>050-054>059-063>069-073>076-082>088-201400-
  CENTRAL AND SOUTHEAST OHIO

CITY           SKY/WX    TMP DP  RH WIND       PRES   REMARKS
COLUMBUS       CLOUDY    76  71  85 S5        30.09S
OSU AIRPORT    CLOUDY    77  73  87 SW6       30.10S
BOLTON FIELD   MOSUNNY   75  72  88 SW3       30.12R
RICKENBACK AFB CLOUDY    73  71  93 S5        30.10S
NEWARK         MOSUNNY   76  70  82 S5        30.09F
MARION         PTSUNNY   79  71  76 SW8       30.09S
LANCASTER      CLOUDY    74  72  93 S3        30.10F
ZANESVILLE     MOSUNNY   75  68  78 SW6       30.10S
NEW PHILLY     NOT AVBL
$$




USA.gov is the U.S. government's official web portal to all federal, state and local government web resources and services.